Wind_Speed
38 39 40 41 42 43 43 44 45 46 47 48 49 51 52 52 52 52 52 52 52 52 51 52 53 54 55 55 55 56 56 56 57 57 58 59 59 59
40 41 41 41 42 43 43 44 45 46 47 48 49 50 50 50 49 49 49 49 49 49 50 50 50 50 50 51 51 51 51 51 51 52 52 52 53 54
41 41 41 41 42 43 43 44 45 46 46 47 47 47 47 46 46 45 45 46 46 47 47 47 47 48 48 47 48 48 48 48 47 48 47 47 48 49
40 40 40 41 42 43 43 43 43 44 44 43 42 41 41 41 41 42 42 43 43 44 44 44 44 44 44 44 45 45 44 44 44 43 43 42 42 43
40 40 40 40 41 41 41 40 40 39 39 38 38 38 38 38 39 39 39 39 39 39 39 40 40 40 40 40 40 40 39 39 38 38 38 37 37 38
38 38 38 38 38 37 37 36 36 35 35 34 34 34 34 35 35 35 35 35 35 34 35 35 35 35 35 35 35 35 34 34 34 34 34 35 35 35
35 35 35 35 34 34 33 32 32 32 31 31 31 30 31 31 31 31 31 31 31 31 31 31 31 31 30 30 30 30 30 30 31 31 31 31 31 32
31 31 31 31 31 30 29 29 28 28 28 27 27 27 28 28 28 28 27 28 28 28 28 28 28 28 27 27 27 27 28 28 28 28 29 29 29 29
28 29 29 28 27 26 26 26 25 25 25 25 25 26 26 26 26 26 25 25 25 25 25 26 26 25 25 25 25 25 26 26 27 27 27 27 27 27
26 26 26 25 24 23 23 23 22 22 23 23 23 24 24 24 24 24 24 24 23 23 23 23 23 24 24 24 25 25 25 26 26 26 26 26 26 25
23 23 22 22 21 20 20 20 20 21 21 21 22 22 22 22 22 22 22 21 21 21 21 21 21 22 23 24 24 25 25 26 26 26 26 25 25 24
21 20 19 19 18 18 18 18 19 20 20 20 21 21 21 21 20 20 20 19 19 19 19 19 20 21 22 23 24 24 24 25 26 25 26 25 24 24
18 17 17 16 16 16 17 17 18 19 19 19 20 19 19 19 19 18 18 18 18 17 17 18 19 20 21 22 23 24 24 24 25 25 25 25 24 23
16 15 15 15 15 16 16 17 17 18 18 18 19 19 18 18 17 17 17 16 16 16 16 17 19 19 20 21 22 23 23 24 24 25 25 24 24 23
13 13 13 14 14 15 16 16 16 17 17 18 18 17 17 16 16 15 15 15 15 15 16 17 18 18 20 20 21 22 22 23 24 24 24 24 23 23
11 12 12 13 13 14 14 15 16 16 17 17 16 15 15 14 14 13 13 13 14 14 15 15 16 18 19 20 21 21 22 23 24 24 24 23 23 23
10 11 12 12 13 13 14 15 15 15 16 16 15 14 13 13 12 12 11 11 12 13 14 15 16 17 18 19 20 21 21 22 23 24 24 24 24 23
10 10 11 12 12 13 14 14 14 15 15 14 13 12 12 11 11 10 10 10 10 11 12 13 15 16 17 18 19 20 21 22 23 24 25 25 24 24
9 10 11 11 12 12 13 13 14 13 13 12 11 11 10 10 9 8 9 9 9 10 11 12 14 15 16 17 18 20 21 22 23 24 24 25 25 25
9 10 11 11 12 12 12 13 12 12 11 10 10 9 9 8 8 7 8 8 9 9 10 12 13 15 16 17 18 20 21 22 23 24 25 25 25 25
10 10 11 11 11 12 12 12 11 11 10 9 8 8 7 7 7 7 7 7 8 9 10 12 13 15 16 17 19 21 22 23 24 25 26 26 26 26
10 10 11 11 11 11 11 10 10 9 9 8 7 7 7 7 7 7 7 8 8 9 11 12 14 15 16 18 19 21 22 23 24 25 26 26 26 26
10 11 11 11 11 11 10 10 9 9 8 7 7 7 7 7 7 7 8 8 9 10 12 13 14 16 17 18 19 21 22 23 24 25 26 26 26 27
Wind_Direction
282 283 283 282 283 283 283 284 285 286 286 287 287 287 288 288 289 289 289 289 289 289 288 288 289 289 288 287 287 286 285 284 282 281 279 276 275 273
283 283 283 283 283 283 284 285 286 287 288 288 288 289 289 289 289 290 289 289 290 290 291 291 291 291 290 290 290 290 289 288 285 284 283 280 278 276
284 284 283 283 284 285 285 286 287 288 289 289 290 290 290 291 291 291 291 291 291 292 293 293 293 293 293 293 292 292 291 290 288 287 286 284 281 279
284 283 284 284 285 286 287 288 289 289 290 290 291 291 292 293 293 294 294 294 295 296 296 296 296 296 296 295 295 295 294 293 291 290 288 286 284 282
284 284 285 285 286 287 288 289 290 290 291 292 293 294 295 296 297 298 299 299 299 299 299 299 299 299 299 299 299 298 298 297 296 294 293 291 288 285
284 285 286 286 287 289 290 290 291 291 293 294 295 296 298 300 301 302 303 304 305 305 306 305 305 305 305 305 304 304 303 302 301 298 297 295 292 289
286 287 287 289 289 290 291 291 292 292 293 294 296 298 301 303 304 306 307 309 310 311 312 312 313 313 311 311 311 310 309 308 306 304 302 300 297 294
289 290 291 291 291 291 291 292 292 293 295 297 300 303 305 306 307 308 310 311 313 314 314 315 317 318 317 316 315 315 315 314 313 311 308 306 303 301
293 293 293 292 292 292 292 292 293 295 298 300 303 306 307 308 309 311 312 313 315 316 317 319 320 322 323 323 323 322 321 320 319 317 315 312 309 305
294 293 293 292 293 292 292 293 296 298 301 303 305 307 308 309 311 312 313 315 318 320 322 324 325 327 328 329 328 327 326 326 325 324 322 319 315 312
296 295 295 295 294 294 295 297 300 302 303 305 307 308 309 310 312 313 315 317 320 323 326 329 330 332 332 332 333 332 332 333 333 332 331 328 325 322
295 294 294 295 295 296 299 302 304 306 307 308 309 310 311 313 314 316 318 319 322 325 328 331 333 334 334 334 336 337 338 339 339 339 338 336 333 330
294 294 293 293 295 299 303 306 308 309 310 310 312 313 314 315 317 319 322 323 325 328 330 333 336 337 338 340 340 341 343 344 345 346 345 345 344 341
296 294 293 293 297 302 305 308 310 312 313 314 316 316 317 317 319 321 324 327 329 332 333 335 338 341 344 344 344 345 347 349 350 351 352 353 354 354
298 297 297 299 304 307 310 311 314 316 317 319 320 320 319 320 320 322 324 328 332 335 337 340 343 346 349 350 351 352 353 355 357 358 359 1 3 5
301 302 303 306 310 312 314 316 317 318 320 322 322 322 321 322 323 324 327 331 336 339 342 346 349 352 355 356 357 359 1 3 5 6 8 9 11 13
307 309 311 312 314 316 317 319 321 321 322 324 325 324 325 326 326 327 330 333 337 343 348 352 355 358 0 2 4 6 8 10 12 14 16 17 17 18
315 316 318 320 321 321 322 323 325 326 326 328 328 328 329 330 331 333 335 338 342 347 353 358 1 4 7 9 11 13 15 16 17 19 21 22 23 24
325 325 326 326 326 327 327 328 328 329 330 331 332 332 334 337 339 342 346 349 351 356 3 7 10 12 15 17 19 21 23 23 24 25 26 26 27 29
334 334 334 333 332 332 333 333 334 334 335 338 340 341 343 347 351 354 356 0 3 8 13 17 20 22 25 27 28 29 29 29 29 29 29 30 31 32
342 341 341 340 339 338 339 339 341 342 344 347 351 353 356 360 3 4 9 13 16 22 26 29 31 34 36 36 35 35 34 33 33 33 33 33 33 34
353 351 349 348 347 347 347 348 349 351 353 356 2 7 9 13 18 23 26 29 33 38 40 41 42 43 42 41 40 38 37 37 37 36 36 36 36 36
1 358 357 357 357 357 358 359 1 3 7 12 17 21 24 30 37 41 43 45 48 52 52 51 51 50 47 45 44 42 40 40 39 38 38 38 37 37
Height
5780 5778 5776 5774 5771 5769 5766 5763 5761 5758 5755 5751 5747 5744 5740 5736 5732 5728 5724 5720 5715 5711 5707 5703 5698 5694 5689 5685 5681 5677 5672 5668 5665 5661 5658 5655 5652 5650
5770 5768 5765 5763 5760 5758 5755 5752 5749 5746 5742 5739 5735 5731 5727 5723 5719 5715 5711 5707 5703 5698 5694 5689 5684 5680 5676 5671 5666 5661 5657 5653 5648 5644 5640 5637 5634 5632
5759 5757 5754 5752 5749 5746 5743 5740 5737 5734 5730 5727 5723 5719 5715 5711 5707 5703 5699 5695 5690 5686 5681 5676 5672 5667 5662 5657 5653 5648 5643 5639 5634 5630 5626 5622 5619 5616
5748 5746 5743 5741 5738 5735 5732 5729 5725 5722 5719 5715 5711 5708 5704 5700 5696 5692 5688 5683 5678 5674 5669 5664 5659 5654 5650 5645 5640 5635 5630 5625 5621 5617 5613 5609 5606 5602
5737 5735 5732 5730 5727 5724 5721 5718 5714 5711 5708 5705 5701 5698 5694 5690 5686 5682 5677 5672 5668 5663 5658 5653 5648 5643 5638 5633 5628 5623 5619 5614 5610 5605 5601 5597 5593 5590
5726 5724 5721 5719 5716 5713 5710 5707 5705 5702 5699 5696 5692 5689 5686 5682 5677 5673 5668 5663 5659 5654 5649 5644 5639 5634 5629 5624 5619 5614 5609 5604 5599 5595 5591 5586 5583 5579
5716 5713 5711 5709 5706 5703 5701 5698 5696 5693 5690 5687 5684 5681 5677 5673 5669 5665 5660 5655 5651 5646 5641 5636 5631 5626 5621 5616 5611 5606 5601 5596 5591 5586 5582 5577 5573 5569
5707 5704 5702 5700 5697 5695 5692 5690 5688 5685 5683 5680 5677 5674 5670 5666 5662 5658 5653 5649 5645 5640 5635 5630 5625 5620 5615 5610 5605 5600 5595 5589 5584 5579 5574 5569 5565 5561
5698 5696 5694 5692 5690 5687 5685 5683 5681 5678 5676 5673 5670 5666 5663 5660 5656 5652 5647 5643 5639 5635 5630 5625 5620 5615 5609 5604 5599 5594 5589 5584 5578 5573 5567 5562 5558 5553
5691 5689 5687 5685 5683 5680 5679 5677 5674 5672 5669 5667 5664 5660 5657 5654 5650 5646 5642 5638 5634 5630 5625 5620 5615 5610 5605 5600 5595 5590 5585 5579 5573 5567 5562 5556 5551 5546
5684 5682 5681 5679 5677 5675 5673 5671 5669 5666 5663 5661 5658 5655 5651 5648 5644 5641 5637 5633 5629 5625 5621 5616 5612 5607 5602 5597 5592 5586 5581 5575 5569 5563 5557 5551 5545 5540
5679 5676 5675 5673 5671 5669 5668 5665 5663 5661 5658 5655 5652 5649 5646 5643 5640 5636 5633 5629 5625 5621 5617 5613 5609 5604 5600 5594 5589 5583 5577 5571 5565 5559 5553 5547 5541 5535
5673 5671 5669 5668 5666 5665 5663 5660 5658 5656 5653 5650 5648 5645 5641 5638 5635 5632 5628 5625 5621 5618 5614 5610 5606 5602 5597 5592 5586 5581 5575 5569 5563 5557 5550 5544 5538 5532
5668 5666 5665 5663 5662 5660 5658 5656 5654 5651 5649 5646 5643 5640 5637 5634 5631 5628 5625 5622 5618 5615 5611 5608 5604 5600 5595 5590 5585 5579 5573 5567 5561 5555 5549 5542 5536 5530
5663 5662 5661 5659 5658 5656 5654 5652 5650 5647 5645 5642 5639 5636 5633 5630 5627 5625 5622 5619 5616 5613 5609 5606 5602 5598 5593 5589 5583 5578 5572 5567 5561 5554 5548 5542 5536 5530
5660 5659 5657 5656 5654 5652 5650 5648 5646 5643 5641 5638 5635 5632 5630 5627 5625 5622 5620 5617 5614 5611 5608 5605 5601 5597 5592 5588 5583 5577 5572 5567 5561 5555 5549 5543 5537 5531
5657 5656 5654 5653 5651 5649 5647 5645 5642 5640 5637 5635 5632 5629 5627 5624 5622 5620 5618 5615 5613 5610 5607 5604 5600 5596 5592 5588 5583 5578 5572 5567 5562 5556 5550 5544 5539 5533
5654 5653 5651 5650 5648 5646 5644 5642 5639 5637 5634 5632 5629 5627 5624 5622 5620 5618 5616 5614 5611 5609 5606 5603 5600 5596 5593 5588 5584 5579 5574 5569 5563 5558 5552 5547 5541 5536
5652 5651 5649 5647 5645 5643 5641 5639 5637 5634 5632 5629 5627 5625 5623 5621 5618 5617 5615 5613 5610 5608 5606 5603 5600 5597 5593 5589 5586 5581 5576 5571 5566 5561 5555 5550 5545 5540
5651 5649 5647 5645 5643 5641 5639 5637 5634 5632 5630 5627 5625 5623 5621 5619 5617 5616 5614 5612 5610 5608 5606 5603 5601 5598 5594 5591 5587 5583 5578 5574 5569 5564 5559 5553 5548 5544
5649 5648 5646 5644 5642 5639 5637 5635 5632 5630 5628 5626 5624 5622 5620 5619 5617 5615 5614 5612 5610 5608 5606 5604 5602 5599 5596 5593 5589 5585 5581 5577 5572 5567 5562 5557 5552 5548
5649 5647 5645 5642 5640 5638 5636 5633 5631 5629 5627 5625 5623 5622 5620 5619 5617 5616 5614 5613 5611 5609 5607 5605 5603 5601 5598 5595 5592 5588 5585 5580 5576 5571 5566 5562 5558 5553
5648 5646 5644 5642 5639 5637 5635 5633 5630 5628 5626 5625 5623 5622 5620 5619 5618 5616 5615 5614 5612 5611 5609 5607 5605 5603 5601 5598 5595 5592 5588 5584 5580 5576 5571 5567 5562 5558